Location: Beekmeers
(50.8953°N, 3.6968°E)
Time: 17:28:19
(UTC+00:00)

FENGYUN 1C DEB - Visible Passes

Search period start: 07 October 2024 00:00
Search period end: 17 October 2024 00:00
Orbit: 563 x 937 km, 98.4° (Epoch: 06 October)

Date Brightness Start Highest point End Pass type
(mag) Time Alt. Az. Time Alt. Az. Time Alt. Az.
07 Oct ? 20:51:30 15° N 20:51:30 15° N 20:52:13 10° N visible
08 Oct ? 20:09:49 13° N 20:09:49 13° N 20:10:24 10° N visible
09 Oct ? 21:07:55 11° NNW 21:07:55 11° NNW 21:08:09 10° NNW visible
10 Oct ? 20:26:02 12° N 20:26:02 12° N 20:26:18 10° N visible
